Powrót do katalogu

COSMOS 2251 DEB

AktywnyLEO
NORAD 34346·DEBRIS·🇷🇺 Russia

Wystrzelony Jun 16, 1993 z Plesetsk Cosmodrome

Loading…

Następne Przeloty (najbliższe 24 godziny)

TLE

ŚwieżeSource: Space-Track

Epoka: Sep 14, 2026, 06:27 UTC

1 34346U 93036PU  26257.26896106  .00000820  00000-0  47160-3 0  9992
2 34346  73.9939 193.7287 0208358 310.6573 201.3788 14.00579702892665

Śledź COSMOS 2251 DEB w czasie rzeczywistym z AllMySat

Download on the App Store